GW2565 Weather Reports


Display with metric or nautical units.
time (UTC)temp
F
wind
direction
speed
MPH
gust
MPH
rain 1hr
in
rain 24hr
in
rain mn
in
humidity
%
barometer
mb
20260506062039 63 18 3.0 7.0 0.00 0.00 0.00 59 1012.0
20260506061535 63 160 4.0 7.0 0.00 0.00 0.00 59 1011.8
20260506061033 63 20 2.0 5.0 0.00 0.00 0.00 60 1012.2
20260506060531 63 72 0.0 2.0 0.00 0.00 0.00 61 1012.0
20260506051000 63 23 0.0 2.0 0.00 0.00 0.00 61 1012.2
20260506050458 63 83 1.0 2.0 0.00 0.00 0.00 61 1012.2
20260506044948 63 14 1.0 5.0 0.00 0.00 0.00 60 1012.6
20260506044446 62 21 0.0 5.0 0.00 0.00 0.00 61 1012.7
20260506043943 62 31 0.0 2.0 0.00 0.00 0.00 61 1012.5
20260506043440 63 174 3.0 3.0 0.00 0.00 0.00 61 1012.5
20260506042938 63 33 0.0 1.0 0.00 0.00 0.00 61 1012.7
20260506042437 63 12 0.0 2.0 0.00 0.00 0.00 61 1012.7
20260506041935 63 29 0.0 2.0 0.00 0.00 0.00 60 1012.6
20260506041432 63 0 0.0 3.0 0.00 0.00 0.00 61 1012.5
20260506040929 63 61 1.0 3.0 0.00 0.00 0.00 59 1012.7
20260506040427 63 25 0.0 1.0 0.00 0.00 0.00 60 1012.6
20260506035923 64 40 0.0 3.0 0.00 0.03 0.03 59 1012.7
20260506035420 64 24 1.0 2.0 0.00 0.03 0.03 58 1012.8
20260506034917 64 57 0.0 3.0 0.00 0.03 0.03 58 1012.7
20260506034414 64 51 0.0 1.0 0.00 0.03 0.03 59 1012.7
20260506033911 64 24 1.0 2.0 0.00 0.03 0.03 57 1012.8
20260506033409 64 44 0.0 1.0 0.00 0.03 0.03 57 1012.7
20260506032905 64 49 0.0 1.0 0.00 0.03 0.03 57 1012.7
20260506032402 64 29 0.0 3.0 0.00 0.03 0.03 57 1012.7
20260506031859 64 13 0.0 2.0 0.00 0.03 0.03 57 1012.4
20260506031356 64 48 0.0 0.0 0.00 0.03 0.03 57 1012.5
20260506030854 64 49 0.0 1.0 0.00 0.03 0.03 56 1012.5
20260506030352 65 40 0.0 0.0 0.00 0.03 0.03 56 1012.6
20260506025848 65 76 1.0 2.0 0.00 0.03 0.03 54 1012.4
20260506025344 66 31 0.0 1.0 0.00 0.03 0.03 55 1012.4
20260506024842 66 46 1.0 5.0 0.00 0.03 0.03 54 1012.5
20260506024338 66 124 3.0 6.0 0.00 0.03 0.03 55 1012.6
20260506023835 66 42 0.0 1.0 0.00 0.03 0.03 55 1012.5
20260506023331 67 37 1.0 3.0 0.00 0.03 0.03 53 1012.5
20260506022828 67 54 1.0 2.0 0.00 0.03 0.03 54 1012.5
20260506022326 67 32 0.0 3.0 0.00 0.03 0.03 53 1012.4
20260506021824 67 39 0.0 1.0 0.00 0.03 0.03 54 1012.5
20260506021321 68 49 0.0 2.0 0.00 0.03 0.03 53 1012.5
20260506020817 68 39 0.0 5.0 0.00 0.03 0.03 52 1012.5
20260506020315 68 115 5.0 6.0 0.00 0.03 0.03 50 1012.5
20260506015813 68 210 1.0 2.0 0.00 0.03 0.03 51 1012.3
20260506015310 68 101 3.0 5.0 0.00 0.03 0.03 50 1012.3
20260506014806 68 46 0.0 6.0 0.00 0.03 0.03 51 1012.4
20260506014303 68 35 0.0 2.0 0.00 0.03 0.03 52 1012.5
20260506013800 68 314 1.0 2.0 0.00 0.03 0.03 52 1012.2
20260506013257 68 338 1.0 2.0 0.00 0.03 0.03 51 1012.3
20260506012754 68 62 1.0 3.0 0.00 0.03 0.03 51 1012.2
20260506012251 68 93 0.0 2.0 0.00 0.03 0.03 50 1012.1
20260506011748 68 22 1.0 2.0 0.00 0.03 0.03 50 1012.2
20260506011244 69 71 1.0 2.0 0.00 0.03 0.03 49 1012.1
20260506010743 69 33 0.0 2.0 0.00 0.03 0.03 50 1011.8
20260506010240 69 44 0.0 2.0 0.00 0.03 0.03 50 1011.9
20260506005737 69 43 0.0 2.0 0.00 0.03 0.03 51 1012.0
20260506005233 69 359 1.0 2.0 0.00 0.03 0.03 48 1011.7
20260506004729 69 39 0.0 0.0 0.00 0.03 0.03 49 1012.0
20260506004227 70 89 1.0 3.0 0.00 0.03 0.03 47 1012.0
20260506003723 70 38 0.0 1.0 0.00 0.03 0.03 48 1012.0
20260506003220 70 45 2.0 3.0 0.00 0.03 0.03 47 1011.8
20260506002715 70 25 0.0 1.0 0.00 0.03 0.03 47 1011.7
20260506002212 71 42 0.0 3.0 0.00 0.03 0.03 47 1011.4
20260506001708 71 27 2.0 6.0 0.00 0.03 0.03 47 1011.7
20260506001206 71 3 1.0 5.0 0.00 0.03 0.03 47 1011.5
20260506000702 70 40 0.0 3.0 0.00 0.03 0.03 48 1011.4
20260506000200 70 13 1.0 2.0 0.00 0.03 0.03 47 1011.5
20260505235657 71 54 0.0 5.0 0.00 0.03 0.03 48 1011.5
20260505235155 71 25 0.0 1.0 0.00 0.03 0.03 47 1011.5
20260505234651 71 204 1.0 1.0 0.00 0.03 0.03 46 1011.4
20260505234149 71 10 1.0 3.0 0.00 0.03 0.03 46 1011.3
20260505233645 71 5 1.0 2.0 0.00 0.03 0.03 47 1011.2
20260505233143 71 307 2.0 3.0 0.00 0.03 0.03 47 1011.3
20260505232640 71 188 5.0 7.0 0.00 0.03 0.03 45 1011.1
20260505232138 71 349 5.0 6.0 0.00 0.03 0.03 46 1011.5
20260505231634 70 29 0.0 3.0 0.00 0.03 0.03 48 1011.4
20260505231133 70 34 0.0 2.0 0.00 0.03 0.03 51 1011.3
20260505230631 71 358 1.0 3.0 0.00 0.03 0.03 49 1011.3
20260505230127 71 24 1.0 2.0 0.00 0.03 0.03 49 1011.2
20260505225623 71 64 1.0 2.0 0.00 0.03 0.03 48 1011.3
20260505225120 71 44 0.0 2.0 0.00 0.03 0.03 50 1011.2
20260505224616 71 41 0.0 2.0 0.00 0.03 0.03 51 1011.0
20260505224114 72 36 0.0 2.0 0.00 0.03 0.03 46 1011.0
20260505223611 72 8 2.0 6.0 0.00 0.03 0.03 47 1011.2
20260505223107 72 284 4.0 5.0 0.00 0.03 0.03 47 1011.0
20260505222603 71 6 1.0 2.0 0.00 0.03 0.03 49 1011.1
20260505222059 71 17 1.0 6.0 0.00 0.03 0.03 51 1011.1
20260505221557 70 27 0.0 3.0 0.00 0.03 0.03 54 1011.1
20260505221053 70 42 0.0 2.0 0.00 0.03 0.03 55 1011.2
20260505220550 70 31 0.0 0.0 0.00 0.03 0.03 56 1011.0
20260505220048 71 40 0.0 1.0 0.00 0.03 0.03 53 1010.9
20260505215546 71 7 1.0 1.0 0.00 0.03 0.03 52 1010.8
20260505215044 71 31 1.0 2.0 0.00 0.03 0.03 52 1011.0
20260505214542 71 12 1.0 1.0 0.00 0.03 0.03 52 1010.9
20260505214038 71 21 0.0 1.0 0.00 0.03 0.03 50 1011.0
20260505213536 72 196 2.0 5.0 0.00 0.03 0.03 50 1010.9
20260505213032 71 72 1.0 5.0 0.00 0.03 0.03 51 1010.9
20260505212529 72 178 4.0 9.0 0.00 0.03 0.03 50 1011.1
20260505212026 73 19 6.0 7.0 0.00 0.03 0.03 48 1011.2
20260505211523 73 178 3.0 7.0 0.00 0.03 0.03 44 1010.8
20260505211019 74 16 2.0 9.0 0.00 0.03 0.03 43 1010.4
20260505210516 75 12 3.0 5.0 0.00 0.03 0.03 41 1010.3
20260505210014 74 191 4.0 8.0 0.00 0.03 0.03 40 1010.1
20260505205512 74 168 5.0 7.0 0.00 0.03 0.03 43 1010.2
20260505205008 74 340 3.0 7.0 0.00 0.03 0.03 42 1010.5
20260505204506 74 212 3.0 5.0 0.00 0.03 0.03 41 1010.1
20260505204003 74 170 4.0 6.0 0.00 0.03 0.03 40 1010.2
20260505203459 75 60 3.0 5.0 0.00 0.03 0.03 39 1010.2
20260505202956 75 108 1.0 2.0 0.00 0.03 0.03 42 1010.2
20260505202453 75 322 4.0 6.0 0.00 0.03 0.03 40 1010.1
20260505201948 76 268 4.0 8.0 0.00 0.03 0.03 40 1010.1
20260505201446 76 130 2.0 5.0 0.00 0.03 0.03 39 1010.0
20260505200943 76 43 1.0 7.0 0.00 0.03 0.03 40 1010.1
20260505200441 77 11 2.0 7.0 0.00 0.03 0.03 40 1010.1
20260505195936 79 41 2.0 9.0 0.00 0.03 0.03 37 1010.1
20260505195434 80 300 3.0 9.0 0.00 0.03 0.03 36 1010.3
20260505194931 79 178 6.0 7.0 0.00 0.03 0.03 35 1010.2
20260505194428 79 348 2.0 6.0 0.00 0.03 0.03 38 1010.0
20260505193928 79 179 5.0 9.0 0.00 0.03 0.03 35 1010.0
20260505193426 78 25 5.0 10.0 0.00 0.03 0.03 37 1010.3
20260505192924 78 284 4.0 7.0 0.00 0.03 0.03 39 1010.4
20260505192422 78 341 3.0 6.0 0.00 0.03 0.03 40 1010.4
20260505191919 78 276 4.0 9.0 0.00 0.03 0.03 39 1010.7
20260505191418 78 307 4.0 14.0 0.00 0.03 0.03 41 1010.7
20260505190914 77 207 5.0 9.0 0.00 0.03 0.03 37 1010.8
20260505190409 77 183 2.0 9.0 0.00 0.03 0.03 40 1011.0
20260505185905 79 276 5.0 10.0 0.00 0.03 0.03 39 1010.8
20260505185402 78 310 2.0 6.0 0.00 0.03 0.03 40 1011.0
20260505184858 78 29 4.0 8.0 0.00 0.03 0.03 39 1010.9
20260505184355 79 344 5.0 10.0 0.00 0.03 0.03 41 1011.0
20260505183852 78 356 2.0 9.0 0.00 0.03 0.03 38 1011.2
20260505183349 78 304 4.0 20.0 0.00 0.03 0.03 37 1011.3
20260505182846 78 46 2.0 20.0 0.00 0.03 0.03 41 1011.1
20260505182343 77 276 3.0 6.0 0.00 0.03 0.03 42 1011.4
20260505181840 77 213 6.0 8.0 0.00 0.03 0.03 39 1011.2
20260505181337 79 90 3.0 13.0 0.00 0.03 0.03 40 1011.3
20260505180833 77 76 3.0 10.0 0.00 0.03 0.03 42 1011.4
20260505180330 77 85 3.0 9.0 0.00 0.03 0.03 41 1011.5
20260505175826 79 240 4.0 8.0 0.00 0.03 0.03 40 1011.5
20260505175323 79 289 4.0 8.0 0.00 0.03 0.03 39 1011.4
20260505174819 78 199 6.0 8.0 0.00 0.03 0.03 39 1011.6
20260505174317 77 172 7.0 13.0 0.00 0.03 0.03 43 1011.4
20260505173813 78 357 2.0 8.0 0.00 0.03 0.03 42 1011.6
20260505173309 77 253 4.0 6.0 0.00 0.03 0.03 42 1011.5
20260505172807 78 274 6.0 9.0 0.00 0.03 0.03 41 1011.5
20260505172306 77 97 2.0 7.0 0.00 0.03 0.03 45 1011.5
20260505171758 78 340 4.0 7.0 0.00 0.03 0.03 40 1011.6
20260505171255 77 163 4.0 14.0 0.00 0.03 0.03 43 1011.6
20260505170752 77 41 2.0 6.0 0.00 0.03 0.03 45 1011.8
20260505170249 75 39 1.0 5.0 0.00 0.03 0.03 46 1011.7
20260505165744 75 3 0.0 5.0 0.00 0.03 0.03 49 1011.9
20260505165240 75 9 2.0 3.0 0.00 0.03 0.03 44 1011.9
20260505164736 75 265 5.0 8.0 0.00 0.03 0.03 43 1012.0
20260505164233 76 37 1.0 5.0 0.00 0.03 0.03 46 1011.9
20260505163731 76 321 1.0 3.0 0.00 0.03 0.03 48 1012.0
20260505163230 75 32 1.0 8.0 0.00 0.03 0.03 45 1012.1
20260505162727 77 250 3.0 7.0 0.00 0.03 0.03 43 1012.0
20260505162224 77 216 5.0 9.0 0.00 0.03 0.03 45 1012.1
20260505161720 75 328 3.0 7.0 0.00 0.03 0.03 44 1012.2
20260505161218 76 127 4.0 9.0 0.00 0.03 0.03 43 1012.2
20260505160715 76 323 2.0 7.0 0.00 0.03 0.03 45 1012.4
20260505160213 77 243 3.0 6.0 0.00 0.03 0.03 47 1012.4
20260505153152 75 304 3.0 6.0 0.00 0.03 0.03 47 1012.6
20260505152649 75 236 1.0 7.0 0.00 0.03 0.03 48 1012.6
20260505152145 75 326 2.0 6.0 0.00 0.03 0.03 53 1012.7
20260505151640 75 278 3.0 6.0 0.00 0.03 0.03 51 1012.8
20260505151138 74 278 3.0 7.0 0.00 0.03 0.03 47 1012.7
20260505150633 74 164 2.0 6.0 0.00 0.03 0.03 49 1012.9
20260505150131 74 137 4.0 6.0 0.00 0.03 0.03 48 1012.8
20260505140559 72 277 4.0 7.0 0.00 0.03 0.03 50 1013.4
20260505125013 66 141 2.0 3.0 0.00 0.03 0.03 64 1013.6
20260505124509 66 349 2.0 7.0 0.00 0.03 0.03 67 1013.3
20260505124006 66 53 1.0 5.0 0.00 0.03 0.03 63 1013.1
20260505123503 66 83 1.0 3.0 0.00 0.03 0.03 64 1013.3
20260505122958 65 276 3.0 3.0 0.00 0.03 0.03 65 1013.2
20260505122456 65 277 2.0 5.0 0.00 0.03 0.03 67 1013.1
20260505121953 64 212 2.0 3.0 0.00 0.03 0.03 65 1013.1
20260505121449 64 164 2.0 3.0 0.00 0.03 0.03 68 1013.1
20260505120945 63 244 3.0 5.0 0.00 0.03 0.03 68 1013.2
20260505120442 62 111 2.0 3.0 0.00 0.03 0.03 69 1013.3
20260505115941 62 5 0.0 7.0 0.00 0.03 0.03 70 1013.4
20260505115438 62 244 5.0 7.0 0.00 0.03 0.03 69 1013.4
20260505114936 62 147 2.0 3.0 0.00 0.03 0.03 70 1013.4
20260505114431 61 10 1.0 2.0 0.00 0.03 0.03 75 1013.3
20260505113928 60 337 3.0 3.0 0.00 0.03 0.03 74 1013.3
20260505113425 59 351 1.0 3.0 0.00 0.03 0.03 77 1013.4
20260505112921 58 359 1.0 5.0 0.00 0.03 0.03 78 1013.4
20260505112419 58 20 1.0 1.0 0.00 0.03 0.03 81 1013.2
20260505111914 57 39 1.0 2.0 0.00 0.03 0.03 81 1013.3
20260505111409 56 10 1.0 1.0 0.00 0.03 0.03 81 1013.4
20260505110906 56 5 1.0 2.0 0.00 0.03 0.03 83 1013.2
20260505110403 55 20 0.0 0.0 0.00 0.03 0.03 83 1013.3
20260505101827 52 25 0.0 0.0 0.00 0.03 0.03 90 1012.9
20260505101322 52 25 0.0 1.0 0.00 0.03 0.03 89 1012.9
20260505100818 52 24 1.0 1.0 0.00 0.03 0.03 89 1012.8
20260505100315 53 42 0.0 1.0 0.00 0.03 0.03 88 1012.9
20260505095811 53 42 0.0 1.0 0.00 0.03 0.03 87 1012.8
20260505095309 53 31 0.0 1.0 0.00 0.03 0.03 87 1012.6
20260505094804 53 31 0.0 1.0 0.00 0.03 0.03 86 1012.5
20260505094302 53 12 0.0 1.0 0.00 0.03 0.03 87 1012.6
20260505093757 53 22 0.0 2.0 0.00 0.03 0.03 88 1012.8
20260505093255 53 26 0.0 1.0 0.00 0.03 0.03 88 1012.5
20260505092751 53 31 1.0 3.0 0.00 0.03 0.03 88 1012.7
20260505092250 54 46 1.0 6.0 0.00 0.03 0.03 88 1012.6
20260505091747 54 19 1.0 1.0 0.00 0.03 0.03 89 1012.5
20260505091245 54 44 1.0 3.0 0.12 0.03 0.03 89 1012.5
20260505090742 55 168 3.0 5.0 0.19 0.03 0.03 88 1012.4
20260505090240 55 43 1.0 5.0 0.07 0.01 0.01 85 1012.6
20260505085737 55 156 2.0 6.0 0.00 0.00 0.00 81 1012.6
20260505085235 54 14 0.0 1.0 0.00 0.00 0.00 85 1012.7
20260505084732 55 6 1.0 2.0 0.00 0.00 0.00 81 1012.8
20260505084231 56 37 2.0 7.0 0.00 0.00 0.00 71 1012.5
20260505083728 55 31 0.0 1.0 0.00 0.00 0.00 72 1012.5
20260505083224 55 15 0.0 1.0 0.00 0.00 0.00 71 1012.5
20260505082720 55 14 0.0 1.0 0.00 0.00 0.00 72 1012.4
20260505082218 55 35 0.0 1.0 0.00 0.00 0.00 71 1012.5
20260505081713 55 23 0.0 0.0 0.00 0.00 0.00 72 1012.5
20260505081211 55 16 0.0 1.0 0.00 0.00 0.00 71 1012.5
20260505080708 55 16 0.0 0.0 0.00 0.00 0.00 71 1012.5
20260505080203 55 16 0.0 1.0 0.00 0.00 0.00 71 1012.4
20260505075700 55 16 0.0 1.0 0.00 0.00 0.00 70 1012.3
20260505075157 55 16 0.0 1.0 0.00 0.00 0.00 69 1012.3
20260505074654 55 36 0.0 0.0 0.00 0.00 0.00 70 1012.1
20260505074150 56 22 0.0 1.0 0.00 0.00 0.00 69 1012.2
20260505073648 56 42 0.0 1.0 0.00 0.00 0.00 67 1012.3
20260505073146 56 16 0.0 1.0 0.00 0.00 0.00 67 1012.2
20260505072642 57 188 2.0 3.0 0.00 0.00 0.00 66 1012.3
20260505072139 57 11 1.0 2.0 0.00 0.00 0.00 66 1012.4
20260505071634 57 31 0.0 1.0 0.00 0.00 0.00 66 1012.3
20260505071132 57 338 2.0 3.0 0.00 0.00 0.00 66 1012.4
20260505070629 57 355 0.0 1.0 0.00 0.00 0.00 66 1012.4
20260505070125 57 6 1.0 3.0 0.00 0.00 0.00 67 1012.4